HST
1 20580U 90037B   24184.44023262  .00005961  00000-0  27626-3 0  9993
2 20580  28.4678 242.9233 0002583 192.7302 167.3225 15.17950114679359
ISS (ZARYA)
1 25544U 98067A   24185.47368093  .00013894  00000-0  25469-3 0  9994
2 25544  51.6396 234.6273 0010084  25.6108 107.2101 15.49541502461070
CXO
1 25867U 99040B   24186.37207818  .00000303  00000-0  00000-0 0  9993
2 25867  41.5303 152.2092 8877997 297.5665 359.9725  0.37806437 14623